Location: Nitra
(0.0000°N, 18.0833°E)
Time: 01:35:35
(UTC+01:00)

ARIANE 6 FM1 Upper Stage - Pass Details

Date: 25 January 2026
Orbit: 522 x 609 km, 62.0° (Epoch: 11 February)

Event Time Altitude Azimuth Distance (km) Brightness Sun altitude
Exits shadow 04:48:54 21° 242° (WSW) 1,289 4.1 -16.8°
Drops below altitude 10° 04:51:58 10° 195° (SSW) 1,868 5.4 -16.0°
Sets 04:54:40 0° 179° (S) 2,786 6.5 -15.4°
